,,PA_Meas_PMT16A,,PR_Meas_QMR101_102,,RH_Meas_QMH101,,SR_Meas_QMS101,,TA_Meas_QMH101,,GenWind,,GenWind,
time,status,PA,status,PR,status,RH,status,SR,status,TA,status,DirAvg,status,SpdAvg,
2012-11-29, 00:00:04,VALID,917.828,VALID,0,VALID,97.3586,VALID,0,VALID,19.5873,VALID,6,VALID,0,
2012-11-29, 00:01:04,VALID,917.782,VALID,0,VALID,97.3434,VALID,0,VALID,19.6278,VALID,6,VALID,0,
2012-11-29, 00:02:04,VALID,917.792,VALID,0,VALID,97.3586,VALID,0,VALID,19.6263,VALID,6,VALID,0,
2012-11-29, 00:03:04,VALID,917.778,VALID,0,VALID,97.351,VALID,0,VALID,19.6473,VALID,6,VALID,0,
2012-11-29, 00:04:04,VALID,917.798,VALID,0,VALID,97.3586,VALID,0,VALID,19.6848,VALID,6,VALID,0,
2012-11-29, 00:05:04,VALID,917.77,VALID,0,VALID,97.351,VALID,0.107441,VALID,19.7043,VALID,6,VALID,0,
2012-11-29, 00:06:04,VALID,917.771,VALID,0,VALID,97.3663,VALID,0.107441,VALID,19.7238,VALID,6,VALID,0,
2012-11-29, 00:07:04,VALID,917.773,VALID,0,VALID,97.3663,VALID,0.107441,VALID,19.7043,VALID,6,VALID,0,
2012-11-29, 00:08:04,VALID,917.756,VALID,0,VALID,97.3663,VALID,0,VALID,19.6848,VALID,6,VALID,0,
2012-11-29, 00:09:04,VALID,917.747,VALID,0,VALID,97.3663,VALID,0,VALID,19.6848,VALID,6,VALID,0,
2012-11-29, 00:10:04,VALID,917.729,VALID,0,VALID,97.3434,VALID,0,VALID,19.6263,VALID,6,VALID,0,
2012-11-29, 00:11:04,VALID,917.716,VALID,0,VALID,97.3663,VALID,0,VALID,19.5873,VALID,6,VALID,0,
2012-11-29, 00:12:04,VALID,917.708,VALID,0,VALID,97.3815,VALID,0,VALID,19.5678,VALID,6,VALID,0,
2012-11-29, 00:13:04,VALID,917.689,VALID,0,VALID,97.3663,VALID,0.107441,VALID,19.5663,VALID,6,VALID,0,
2012-11-29, 00:14:04,VALID,917.716,VALID,0,VALID,97.3739,VALID,0,VALID,19.5873,VALID,6,VALID,0,
2012-11-29, 00:15:04,VALID,917.724,VALID,0,VALID,97.3739,VALID,0,VALID,19.5873,VALID,6,VALID,0,
2012-11-29, 00:16:04,VALID,917.724,VALID,0,VALID,97.3663,VALID,0.107441,VALID,19.5678,VALID,6,VALID,0,
2012-11-29, 00:17:04,VALID,917.714,VALID,0,VALID,97.3663,VALID,0,VALID,19.5678,VALID,6,VALID,0,
2012-11-29, 00:18:05,VALID,917.67,VALID,0,VALID,97.3739,VALID,0,VALID,19.5678,VALID,6,VALID,0,
2012-11-29, 00:19:05,VALID,917.696,VALID,0,VALID,97.3968,VALID,0,VALID,19.6083,VALID,6,VALID,0,
2012-11-29, 00:20:05,VALID,917.679,VALID,0,VALID,97.3815,VALID,0,VALID,19.6083,VALID,6,VALID,0,
2012-11-29, 00:21:05,VALID,917.675,VALID,0.2,VALID,97.3891,VALID,0,VALID,19.6263,VALID,6,VALID,0,
2012-11-29, 00:22:05,VALID,917.656,VALID,0,VALID,97.3663,VALID,0,VALID,19.6473,VALID,6,VALID,0,
2012-11-29, 00:23:05,VALID,917.625,VALID,0,VALID,97.3739,VALID,0,VALID,19.6473,VALID,6,VALID,0,
2012-11-29, 00:24:05,VALID,917.64,VALID,0,VALID,97.3815,VALID,0,VALID,19.6473,VALID,6,VALID,0,
2012-11-29, 00:25:05,VALID,917.583,VALID,0,VALID,97.3663,VALID,0,VALID,19.6473,VALID,6,VALID,0,
2012-11-29, 00:26:05,VALID,917.605,VALID,0,VALID,97.3586,VALID,0,VALID,19.6473,VALID,6,VALID,0,
2012-11-29, 00:27:05,VALID,917.589,VALID,0,VALID,97.3739,VALID,0,VALID,19.6473,VALID,6,VALID,0,
2012-11-29, 00:28:05,VALID,917.572,VALID,0,VALID,97.3891,VALID,0,VALID,19.6668,VALID,6,VALID,0,
2012-11-29, 00:29:05,VALID,917.533,VALID,0,VALID,97.3815,VALID,0,VALID,19.6473,VALID,6,VALID,0,
2012-11-29, 00:30:05,VALID,917.519,VALID,0,VALID,97.3739,VALID,0,VALID,19.6083,VALID,6,VALID,0,
2012-11-29, 00:31:05,VALID,917.547,VALID,0,VALID,97.3891,VALID,0,VALID,19.5888,VALID,6,VALID,0,
2012-11-29, 00:32:05,VALID,917.53,VALID,0,VALID,97.3815,VALID,0,VALID,19.5693,VALID,6,VALID,0,
2012-11-29, 00:33:05,VALID,917.514,VALID,0,VALID,97.3891,VALID,0,VALID,19.5888,VALID,6,VALID,0,
2012-11-29, 00:34:05,VALID,917.517,VALID,0,VALID,97.3815,VALID,0,VALID,19.5873,VALID,6,VALID,0,
2012-11-29, 00:35:05,VALID,917.53,VALID,0,VALID,97.3815,VALID,0,VALID,19.5678,VALID,6,VALID,0,
2012-11-29, 00:36:05,VALID,917.501,VALID,0,VALID,97.3891,VALID,0,VALID,19.5873,VALID,6,VALID,0,
2012-11-29, 00:37:05,VALID,917.504,VALID,0,VALID,97.3891,VALID,0.107441,VALID,19.5678,VALID,6,VALID,0,
2012-11-29, 00:38:05,VALID,917.502,VALID,0,VALID,97.3968,VALID,0.107441,VALID,19.5678,VALID,6,VALID,0,
2012-11-29, 00:39:05,VALID,917.459,VALID,0.2,VALID,97.3891,VALID,0,VALID,19.5678,VALID,6,VALID,0,
2012-11-29, 00:40:05,VALID,917.448,VALID,0,VALID,97.4044,VALID,0,VALID,19.5873,VALID,6,VALID,0,
2012-11-29, 00:41:05,VALID,917.424,VALID,0,VALID,97.3815,VALID,0,VALID,19.6263,VALID,6,VALID,0,
2012-11-29, 00:42:05,VALID,917.448,VALID,0,VALID,97.3891,VALID,0,VALID,19.6458,VALID,6,VALID,0,
2012-11-29, 00:43:05,VALID,917.386,VALID,0,VALID,97.412,VALID,0,VALID,19.6668,VALID,6,VALID,0,
2012-11-29, 00:44:05,VALID,917.394,VALID,0,VALID,97.4044,VALID,0.107441,VALID,19.6653,VALID,6,VALID,0,
2012-11-29, 00:45:05,VALID,917.365,VALID,0,VALID,97.3968,VALID,0,VALID,19.6458,VALID,6,VALID,0,
2012-11-29, 00:46:05,VALID,917.374,VALID,0,VALID,97.412,VALID,0,VALID,19.6458,VALID,6,VALID,0,
2012-11-29, 00:47:05,VALID,917.367,VALID,0,VALID,97.4196,VALID,0,VALID,19.6068,VALID,6,VALID,0,
2012-11-29, 00:48:05,VALID,917.327,VALID,0,VALID,97.412,VALID,0,VALID,19.5873,VALID,6,VALID,0,
2012-11-29, 00:49:05,VALID,917.345,VALID,0,VALID,97.4273,VALID,0,VALID,19.5498,VALID,6,VALID,0,
2012-11-29, 00:50:05,VALID,917.308,VALID,0,VALID,97.412,VALID,0,VALID,19.5303,VALID,6,VALID,0,
2012-11-29, 00:51:05,VALID,917.313,VALID,0,VALID,97.3968,VALID,0,VALID,19.4898,VALID,6,VALID,0,
2012-11-29, 00:52:05,VALID,917.281,VALID,0,VALID,97.4044,VALID,0,VALID,19.5108,VALID,6,VALID,0,
2012-11-29, 00:53:05,VALID,917.272,VALID,0,VALID,97.412,VALID,0,VALID,19.5303,VALID,6,VALID,0,
2012-11-29, 00:54:05,VALID,917.255,VALID,0,VALID,97.3968,VALID,0,VALID,19.5108,VALID,6,VALID,0,
2012-11-29, 00:55:05,VALID,917.269,VALID,0,VALID,97.4196,VALID,0,VALID,19.5303,VALID,6,VALID,0,
2012-11-29, 00:56:05,VALID,917.276,VALID,0,VALID,97.3968,VALID,0,VALID,19.5303,VALID,6,VALID,0,
2012-11-29, 00:57:05,VALID,917.255,VALID,0,VALID,97.4196,VALID,0,VALID,19.5303,VALID,6,VALID,0,
2012-11-29, 00:58:05,VALID,917.207,VALID,0,VALID,97.4044,VALID,0,VALID,19.5498,VALID,6,VALID,0,
2012-11-29, 00:59:05,VALID,917.21,VALID,0,VALID,97.4044,VALID,0,VALID,19.5498,VALID,6,VALID,0,
2012-11-29, 01:00:05,VALID,917.213,VALID,0,VALID,97.4196,VALID,0,VALID,19.5303,VALID,6,VALID,0,
2012-11-29, 01:01:05,VALID,917.203,VALID,0,VALID,97.3968,VALID,0,VALID,19.5708,VALID,6,VALID,0,
2012-11-29, 01:02:05,VALID,917.182,VALID,0,VALID,97.4044,VALID,0,VALID,19.5498,VALID,6,VALID,0,
2012-11-29, 01:03:05,VALID,917.16,VALID,0,VALID,97.4273,VALID,0,VALID,19.5498,VALID,6,VALID,0,
2012-11-29, 01:04:05,VALID,917.18,VALID,0,VALID,97.4501,VALID,0,VALID,19.5693,VALID,6,VALID,0,
2012-11-29, 01:05:05,VALID,917.126,VALID,0,VALID,97.4273,VALID,0,VALID,19.6068,VALID,6,VALID,0,
2012-11-29, 01:06:05,VALID,917.146,VALID,0,VALID,97.412,VALID,0,VALID,19.6278,VALID,6,VALID,0,
2012-11-29, 01:07:05,VALID,917.124,VALID,0,VALID,97.412,VALID,0,VALID,19.6278,VALID,6,VALID,0,
2012-11-29, 01:08:05,VALID,917.115,VALID,0,VALID,97.4196,VALID,0,VALID,19.5888,VALID,6,VALID,0,
2012-11-29, 01:09:05,VALID,917.107,VALID,0,VALID,97.3968,VALID,0,VALID,19.5708,VALID,6,VALID,0,
2012-11-29, 01:10:05,VALID,917.098,VALID,0,VALID,97.3891,VALID,0,VALID,19.5303,VALID,6,VALID,0,
2012-11-29, 01:11:05,VALID,917.082,VALID,0,VALID,97.412,VALID,0,VALID,19.5108,VALID,6,VALID,0,
2012-11-29, 01:12:05,VALID,917.057,VALID,0,VALID,97.4273,VALID,0,VALID,19.5108,VALID,6,VALID,0,
2012-11-29, 01:13:05,VALID,917.03,VALID,0,VALID,97.4273,VALID,0,VALID,19.5303,VALID,6,VALID,0,
2012-11-29, 01:14:05,VALID,917.009,VALID,0,VALID,97.4425,VALID,0,VALID,19.5708,VALID,6,VALID,0,
2012-11-29, 01:15:05,VALID,916.985,VALID,0,VALID,97.4196,VALID,0,VALID,19.5108,VALID,6,VALID,0,
2012-11-29, 01:16:05,VALID,916.961,VALID,0,VALID,97.4273,VALID,0,VALID,19.4703,VALID,6,VALID,0,
2012-11-29, 01:17:05,VALID,916.946,VALID,0,VALID,97.4196,VALID,0,VALID,19.4313,VALID,6,VALID,0,
2012-11-29, 01:18:05,VALID,916.967,VALID,0,VALID,97.4273,VALID,0,VALID,19.4327,VALID,6,VALID,0,
2012-11-29, 01:19:05,VALID,916.92,VALID,0,VALID,97.412,VALID,0,VALID,19.4118,VALID,6,VALID,0,
2012-11-29, 01:20:05,VALID,916.94,VALID,0,VALID,97.4577,VALID,0,VALID,19.3923,VALID,6,VALID,0,
2012-11-29, 01:21:05,VALID,916.943,VALID,0,VALID,97.4196,VALID,0,VALID,19.3728,VALID,6,VALID,0,
2012-11-29, 01:22:05,VALID,916.932,VALID,0,VALID,97.4273,VALID,0,VALID,19.3728,VALID,6,VALID,0,
2012-11-29, 01:23:05,VALID,916.94,VALID,0,VALID,97.4349,VALID,0,VALID,19.3533,VALID,6,VALID,0,
2012-11-29, 01:24:05,VALID,916.912,VALID,0,VALID,97.4273,VALID,0,VALID,19.3728,VALID,6,VALID,0,
2012-11-29, 01:25:05,VALID,916.926,VALID,0,VALID,97.4501,VALID,0,VALID,19.3728,VALID,6,VALID,0,
2012-11-29, 01:26:05,VALID,916.88,VALID,0,VALID,97.4501,VALID,0,VALID,19.3533,VALID,6,VALID,0,
2012-11-29, 01:27:05,VALID,916.89,VALID,0,VALID,97.4425,VALID,0,VALID,19.2933,VALID,6,VALID,0,
2012-11-29, 01:28:05,VALID,916.848,VALID,0,VALID,97.4577,VALID,0,VALID,19.3338,VALID,6,VALID,0,
2012-11-29, 01:29:05,VALID,916.825,VALID,0,VALID,97.4577,VALID,0,VALID,19.3143,VALID,6,VALID,0,
2012-11-29, 01:30:05,VALID,916.806,VALID,0,VALID,97.4501,VALID,0,VALID,19.2948,VALID,6,VALID,0,
2012-11-29, 01:31:05,VALID,916.78,VALID,0,VALID,97.4501,VALID,0,VALID,19.2948,VALID,6,VALID,0,
2012-11-29, 01:32:05,VALID,916.75,VALID,0,VALID,97.4425,VALID,0,VALID,19.2753,VALID,6,VALID,0,
2012-11-29, 01:33:05,VALID,916.747,VALID,0,VALID,97.4577,VALID,0,VALID,19.2753,VALID,6,VALID,0,
2012-11-29, 01:34:05,VALID,916.725,VALID,0,VALID,97.4577,VALID,0,VALID,19.2753,VALID,6,VALID,0,
2012-11-29, 01:35:05,VALID,916.708,VALID,0,VALID,97.4654,VALID,0,VALID,19.2753,VALID,6,VALID,0,
2012-11-29, 01:36:05,VALID,916.67,VALID,0,VALID,97.4501,VALID,0,VALID,19.2948,VALID,6,VALID,0,
2012-11-29, 01:37:05,VALID,916.65,VALID,0,VALID,97.4577,VALID,0,VALID,19.2948,VALID,6,VALID,0,
2012-11-29, 01:38:05,VALID,916.646,VALID,0,VALID,97.4654,VALID,0,VALID,19.2948,VALID,6,VALID,0,
2012-11-29, 01:39:05,VALID,916.63,VALID,0,VALID,97.473,VALID,0,VALID,19.2948,VALID,6,VALID,0,
2012-11-29, 01:40:05,VALID,916.603,VALID,0,VALID,97.4654,VALID,0,VALID,19.2962,VALID,6,VALID,0,
2012-11-29, 01:41:05,VALID,916.573,VALID,0,VALID,97.473,VALID,0,VALID,19.2948,VALID,6,VALID,0,
2012-11-29, 01:42:05,VALID,916.587,VALID,0,VALID,97.4882,VALID,0,VALID,19.2948,VALID,6,VALID,0,
2012-11-29, 01:43:05,VALID,916.535,VALID,0,VALID,97.473,VALID,0,VALID,19.2948,VALID,6,VALID,0,
2012-11-29, 01:44:05,VALID,916.534,VALID,0,VALID,97.473,VALID,0,VALID,19.2948,VALID,6,VALID,0,
2012-11-29, 01:45:05,VALID,916.543,VALID,0,VALID,97.4577,VALID,0,VALID,19.3143,VALID,6,VALID,0,
2012-11-29, 01:46:05,VALID,916.534,VALID,0,VALID,97.4577,VALID,0,VALID,19.3143,VALID,6,VALID,0,
2012-11-29, 01:47:05,VALID,916.491,VALID,0,VALID,97.4882,VALID,0,VALID,19.3143,VALID,6,VALID,0,
2012-11-29, 01:48:05,VALID,916.471,VALID,0.2,VALID,97.4654,VALID,0.107441,VALID,19.3338,VALID,6,VALID,0,
2012-11-29, 01:49:05,VALID,916.484,VALID,0,VALID,97.4806,VALID,0,VALID,19.3338,VALID,6,VALID,0,
2012-11-29, 01:50:05,VALID,916.465,VALID,0,VALID,97.4806,VALID,0,VALID,19.3338,VALID,6,VALID,0,
2012-11-29, 01:51:05,VALID,916.451,VALID,0,VALID,97.4806,VALID,0,VALID,19.3338,VALID,6,VALID,0,
2012-11-29, 01:52:05,VALID,916.451,VALID,0,VALID,97.4806,VALID,0.107441,VALID,19.3547,VALID,6,VALID,0,
2012-11-29, 01:53:05,VALID,916.418,VALID,0,VALID,97.4806,VALID,0,VALID,19.3143,VALID,6,VALID,0,
2012-11-29, 01:54:05,VALID,916.421,VALID,0,VALID,97.4806,VALID,0,VALID,19.3143,VALID,6,VALID,0,
2012-11-29, 01:55:05,VALID,916.393,VALID,0,VALID,97.4882,VALID,0,VALID,19.3143,VALID,6,VALID,0,
2012-11-29, 01:56:05,VALID,916.366,VALID,0,VALID,97.473,VALID,0,VALID,19.3143,VALID,6,VALID,0,
2012-11-29, 01:57:05,VALID,916.386,VALID,0,VALID,97.4882,VALID,0,VALID,19.3338,VALID,6,VALID,0,
2012-11-29, 01:58:05,VALID,916.362,VALID,0,VALID,97.4654,VALID,0.107441,VALID,19.3338,VALID,6,VALID,0,
2012-11-29, 01:59:05,VALID,916.364,VALID,0,VALID,97.4959,VALID,0,VALID,19.3128,VALID,6,VALID,0,
2012-11-29, 02:00:05,VALID,916.325,VALID,0.2,VALID,97.5111,VALID,0,VALID,19.3338,VALID,6,VALID,0,
2012-11-29, 02:01:05,VALID,916.324,VALID,0,VALID,97.4882,VALID,0,VALID,19.3338,VALID,6,VALID,0,
2012-11-29, 02:02:05,VALID,916.3,VALID,0,VALID,97.4654,VALID,0.107441,VALID,19.3533,VALID,6,VALID,0,
2012-11-29, 02:03:05,VALID,916.301,VALID,0,VALID,97.4882,VALID,0.107441,VALID,19.3533,VALID,6,VALID,0,
2012-11-29, 02:04:05,VALID,916.3,VALID,0,VALID,97.4882,VALID,0,VALID,19.3533,VALID,6,VALID,0,
2012-11-29, 02:05:05,VALID,916.276,VALID,0,VALID,97.5111,VALID,0,VALID,19.3923,VALID,6,VALID,0,
2012-11-29, 02:06:05,VALID,916.26,VALID,0,VALID,97.5035,VALID,0,VALID,19.3923,VALID,6,VALID,0,
2012-11-29, 02:07:05,VALID,916.194,VALID,0,VALID,97.4959,VALID,0,VALID,19.4118,VALID,6,VALID,0,
2012-11-29, 02:08:05,VALID,916.179,VALID,0,VALID,97.4882,VALID,0,VALID,19.4118,VALID,6,VALID,0,
2012-11-29, 02:09:05,VALID,916.18,VALID,0,VALID,97.4882,VALID,0,VALID,19.3923,VALID,6,VALID,0,
2012-11-29, 02:10:05,VALID,916.163,VALID,0,VALID,97.4882,VALID,0,VALID,19.3923,VALID,6,VALID,0,
2012-11-29, 02:11:05,VALID,916.149,VALID,0,VALID,97.5035,VALID,0,VALID,19.3923,VALID,6,VALID,0,
2012-11-29, 02:12:05,VALID,916.105,VALID,0,VALID,97.473,VALID,0,VALID,19.3923,VALID,6,VALID,0,
2012-11-29, 02:13:05,VALID,916.101,VALID,0,VALID,97.4959,VALID,0,VALID,19.3728,VALID,6,VALID,0,
2012-11-29, 02:14:05,VALID,916.082,VALID,0,VALID,97.5111,VALID,0,VALID,19.3728,VALID,6,VALID,0,
2012-11-29, 02:15:05,VALID,916.055,VALID,0,VALID,97.4959,VALID,0,VALID,19.3338,VALID,6,VALID,0,
2012-11-29, 02:16:05,VALID,916.04,VALID,0,VALID,97.5035,VALID,0,VALID,19.3338,VALID,6,VALID,0,
2012-11-29, 02:17:05,VALID,916.023,VALID,0,VALID,97.5035,VALID,0.107441,VALID,19.3533,VALID,6,VALID,0,
2012-11-29, 02:18:05,VALID,916.026,VALID,0,VALID,97.4959,VALID,0,VALID,19.3547,VALID,6,VALID,0,
2012-11-29, 02:19:05,VALID,916.009,VALID,0,VALID,97.5035,VALID,0,VALID,19.3338,VALID,6,VALID,0,
2012-11-29, 02:20:05,VALID,916.016,VALID,0,VALID,97.4882,VALID,0,VALID,19.3338,VALID,6,VALID,0,
2012-11-29, 02:21:05,VALID,915.972,VALID,0,VALID,97.5035,VALID,0,VALID,19.3338,VALID,6,VALID,0,
2012-11-29, 02:22:05,VALID,915.963,VALID,0,VALID,97.5187,VALID,0,VALID,19.3143,VALID,6,VALID,0,
2012-11-29, 02:23:05,VALID,915.98,VALID,0,VALID,97.5187,VALID,0,VALID,19.3143,VALID,6,VALID,0,
2012-11-29, 02:24:05,VALID,915.972,VALID,0,VALID,97.5187,VALID,0,VALID,19.3143,VALID,6,VALID,0,
2012-11-29, 02:25:05,VALID,915.943,VALID,0,VALID,97.5111,VALID,0,VALID,19.3352,VALID,6,VALID,0,
2012-11-29, 02:26:05,VALID,915.926,VALID,0,VALID,97.5035,VALID,0,VALID,19.3338,VALID,6,VALID,0,
2012-11-29, 02:27:05,VALID,915.943,VALID,0,VALID,97.5264,VALID,0,VALID,19.3338,VALID,6,VALID,0,
2012-11-29, 02:28:05,VALID,915.921,VALID,0,VALID,97.4959,VALID,0,VALID,19.3742,VALID,6,VALID,0,
2012-11-29, 02:29:05,VALID,915.877,VALID,0,VALID,97.5111,VALID,0,VALID,19.3338,VALID,6,VALID,0,
2012-11-29, 02:30:05,VALID,915.9,VALID,0,VALID,97.4806,VALID,0,VALID,19.3547,VALID,6,VALID,0,
2012-11-29, 02:31:05,VALID,915.894,VALID,0.2,VALID,97.5035,VALID,0,VALID,19.3338,VALID,6,VALID,0,
2012-11-29, 02:32:05,VALID,915.859,VALID,0,VALID,97.5111,VALID,0,VALID,19.3338,VALID,6,VALID,0,
2012-11-29, 02:33:05,VALID,915.84,VALID,0,VALID,97.5035,VALID,0,VALID,19.3338,VALID,6,VALID,0,
2012-11-29, 02:34:05,VALID,915.848,VALID,0,VALID,97.5111,VALID,0,VALID,19.3143,VALID,6,VALID,0,
2012-11-29, 02:35:05,VALID,915.854,VALID,0,VALID,97.5111,VALID,0,VALID,19.3352,VALID,6,VALID,0,
2012-11-29, 02:36:05,VALID,915.852,VALID,0,VALID,97.5111,VALID,0,VALID,19.2948,VALID,6,VALID,0,
2012-11-29, 02:37:05,VALID,915.836,VALID,0,VALID,97.5416,VALID,0,VALID,19.2962,VALID,6,VALID,0,
2012-11-29, 02:38:05,VALID,915.814,VALID,0,VALID,97.5264,VALID,0,VALID,19.2948,VALID,6,VALID,0,
2012-11-29, 02:39:05,VALID,915.785,VALID,0,VALID,97.5111,VALID,0,VALID,19.3157,VALID,6,VALID,0,
2012-11-29, 02:40:05,VALID,915.788,VALID,0,VALID,97.534,VALID,0,VALID,19.2753,VALID,6,VALID,0,
2012-11-29, 02:41:05,VALID,915.767,VALID,0,VALID,97.5035,VALID,0,VALID,19.2962,VALID,6,VALID,0,
2012-11-29, 02:42:05,VALID,915.72,VALID,0,VALID,97.5187,VALID,0,VALID,19.2962,VALID,6,VALID,0,
2012-11-29, 02:43:05,VALID,915.716,VALID,0,VALID,97.5187,VALID,0,VALID,19.2753,VALID,6,VALID,0,
2012-11-29, 02:44:05,VALID,915.673,VALID,0,VALID,97.5264,VALID,0,VALID,19.2962,VALID,6,VALID,0,
2012-11-29, 02:45:05,VALID,915.652,VALID,0,VALID,97.5264,VALID,0,VALID,19.2962,VALID,6,VALID,0,
2012-11-29, 02:46:05,VALID,915.649,VALID,0,VALID,97.534,VALID,0,VALID,19.2948,VALID,6,VALID,0,
2012-11-29, 02:47:05,VALID,915.625,VALID,0,VALID,97.534,VALID,0,VALID,19.3352,VALID,6,VALID,0,
2012-11-29, 02:48:05,VALID,915.615,VALID,0,VALID,97.5187,VALID,0,VALID,19.3547,VALID,12,VALID,0,
2012-11-29, 02:49:05,VALID,915.604,VALID,0,VALID,97.534,VALID,0,VALID,19.3143,VALID,13,VALID,0,
2012-11-29, 02:50:05,VALID,915.589,VALID,0,VALID,97.534,VALID,0,VALID,19.3352,VALID,36,VALID,0,
2012-11-29, 02:51:05,VALID,915.58,VALID,0,VALID,97.534,VALID,0.107441,VALID,19.3143,VALID,36,VALID,0,
2012-11-29, 02:52:05,VALID,915.601,VALID,0,VALID,97.534,VALID,0,VALID,19.3338,VALID,36,VALID,0,
2012-11-29, 02:53:05,VALID,915.593,VALID,0,VALID,97.5416,VALID,0,VALID,19.3338,VALID,36,VALID,0,
2012-11-29, 02:54:05,VALID,915.595,VALID,0,VALID,97.534,VALID,0,VALID,19.3547,VALID,36,VALID,0,
2012-11-29, 02:55:05,VALID,915.581,VALID,0,VALID,97.5264,VALID,0,VALID,19.3338,VALID,36,VALID,0,
2012-11-29, 02:56:05,VALID,915.591,VALID,0,VALID,97.5187,VALID,0,VALID,19.3338,VALID,36,VALID,0,
2012-11-29, 02:57:05,VALID,915.578,VALID,0,VALID,97.5416,VALID,0,VALID,19.3547,VALID,36,VALID,0,
2012-11-29, 02:58:05,VALID,915.598,VALID,0,VALID,97.534,VALID,0,VALID,19.3547,VALID,36,VALID,0,
2012-11-29, 02:59:04,VALID,915.548,VALID,0,VALID,97.5416,VALID,0,VALID,19.3547,VALID,36,VALID,0,
2012-11-29, 03:00:04,VALID,915.548,VALID,0,VALID,97.5264,VALID,0,VALID,19.3338,VALID,36,VALID,0,
2012-11-29, 03:01:04,VALID,915.538,VALID,0,VALID,97.5264,VALID,0,VALID,19.3338,VALID,36,VALID,0,
2012-11-29, 03:02:04,VALID,915.53,VALID,0,VALID,97.5569,VALID,0,VALID,19.3143,VALID,36,VALID,0,
2012-11-29, 03:03:04,VALID,915.543,VALID,0,VALID,97.534,VALID,0,VALID,19.3352,VALID,36,VALID,0,
2012-11-29, 03:04:04,VALID,915.551,VALID,0,VALID,97.5111,VALID,0,VALID,19.3338,VALID,36,VALID,0,
2012-11-29, 03:05:04,VALID,915.551,VALID,0,VALID,97.5492,VALID,0,VALID,19.3143,VALID,36,VALID,0,
2012-11-29, 03:06:04,VALID,915.563,VALID,0,VALID,97.534,VALID,0,VALID,19.3143,VALID,36,VALID,0,
2012-11-29, 03:07:04,VALID,915.551,VALID,0,VALID,97.5492,VALID,0,VALID,19.3143,VALID,36,VALID,0,
2012-11-29, 03:08:04,VALID,915.522,VALID,0,VALID,97.5187,VALID,0,VALID,19.2948,VALID,36,VALID,0,
2012-11-29, 03:09:04,VALID,915.549,VALID,0,VALID,97.5569,VALID,0,VALID,19.3157,VALID,36,VALID,0,
2012-11-29, 03:10:04,VALID,915.54,VALID,0,VALID,97.5264,VALID,0,VALID,19.2753,VALID,36,VALID,0,
2012-11-29, 03:11:04,VALID,915.553,VALID,0,VALID,97.534,VALID,0,VALID,19.2948,VALID,36,VALID,0,
2012-11-29, 03:12:04,VALID,915.539,VALID,0,VALID,97.534,VALID,0,VALID,19.2948,VALID,36,VALID,0,
2012-11-29, 03:13:04,VALID,915.53,VALID,0,VALID,97.5645,VALID,0,VALID,19.2948,VALID,36,VALID,0,
2012-11-29, 03:14:04,VALID,915.511,VALID,0,VALID,97.5569,VALID,0.107441,VALID,19.3157,VALID,36,VALID,0,
2012-11-29, 03:15:04,VALID,915.519,VALID,0,VALID,97.5416,VALID,0,VALID,19.3352,VALID,36,VALID,0,
2012-11-29, 03:16:04,VALID,915.502,VALID,0,VALID,97.5416,VALID,0,VALID,19.3143,VALID,36,VALID,0,
2012-11-29, 03:17:04,VALID,915.488,VALID,0,VALID,97.5569,VALID,0,VALID,19.3143,VALID,36,VALID,0,
2012-11-29, 03:18:04,VALID,915.504,VALID,0,VALID,97.5416,VALID,0,VALID,19.3143,VALID,36,VALID,0,
2012-11-29, 03:19:04,VALID,915.484,VALID,0,VALID,97.5645,VALID,0,VALID,19.3772,VALID,36,VALID,0,
2012-11-29, 03:20:04,VALID,915.485,VALID,0,VALID,97.5492,VALID,0,VALID,19.2933,VALID,36,VALID,0,
2012-11-29, 03:21:04,VALID,915.465,VALID,0,VALID,97.5492,VALID,0,VALID,19.2933,VALID,36,VALID,0,
2012-11-29, 03:22:04,VALID,915.475,VALID,0,VALID,97.5492,VALID,0,VALID,19.3577,VALID,36,VALID,0,
2012-11-29, 03:23:04,VALID,915.48,VALID,0,VALID,97.5264,VALID,0,VALID,19.2738,VALID,36,VALID,0,
2012-11-29, 03:24:04,VALID,915.483,VALID,0,VALID,97.5569,VALID,0,VALID,19.2948,VALID,36,VALID,0,
2012-11-29, 03:25:04,VALID,915.502,VALID,0,VALID,97.5645,VALID,0,VALID,19.2962,VALID,36,VALID,0,
2012-11-29, 03:26:04,VALID,915.47,VALID,0,VALID,97.5416,VALID,0,VALID,19.2753,VALID,36,VALID,0,
2012-11-29, 03:27:04,VALID,915.471,VALID,0,VALID,97.5721,VALID,0,VALID,19.2767,VALID,36,VALID,0,
2012-11-29, 03:28:04,VALID,915.459,VALID,0,VALID,97.5569,VALID,0,VALID,19.2753,VALID,36,VALID,0,
2012-11-29, 03:29:04,VALID,915.437,VALID,0,VALID,97.5797,VALID,0,VALID,19.2348,VALID,36,VALID,0,
2012-11-29, 03:30:04,VALID,915.43,VALID,0,VALID,97.5873,VALID,0,VALID,19.2153,VALID,36,VALID,0,
2012-11-29, 03:31:04,VALID,915.424,VALID,0,VALID,97.5873,VALID,0,VALID,19.2572,VALID,36,VALID,0,
2012-11-29, 03:32:04,VALID,915.432,VALID,0,VALID,97.5721,VALID,0,VALID,19.1958,VALID,36,VALID,0,
2012-11-29, 03:33:04,VALID,915.386,VALID,0,VALID,97.5797,VALID,0,VALID,19.2797,VALID,36,VALID,0,
2012-11-29, 03:34:04,VALID,915.381,VALID,0,VALID,97.5721,VALID,0,VALID,19.1973,VALID,36,VALID,0,
2012-11-29, 03:35:04,VALID,915.362,VALID,0,VALID,97.5721,VALID,0,VALID,19.2377,VALID,36,VALID,0,
2012-11-29, 03:36:04,VALID,915.375,VALID,0,VALID,97.5797,VALID,0,VALID,19.2182,VALID,36,VALID,0,
2012-11-29, 03:37:04,VALID,915.378,VALID,0,VALID,97.5873,VALID,0.107441,VALID,19.1973,VALID,36,VALID,0,
2012-11-29, 03:38:04,VALID,915.371,VALID,0,VALID,97.595,VALID,0,VALID,19.2168,VALID,36,VALID,0,
2012-11-29, 03:39:04,VALID,915.376,VALID,0,VALID,97.5873,VALID,0,VALID,19.2392,VALID,36,VALID,0,
2012-11-29, 03:40:04,VALID,915.382,VALID,0,VALID,97.595,VALID,0,VALID,19.1749,VALID,36,VALID,0,
2012-11-29, 03:41:04,VALID,915.383,VALID,0,VALID,97.5721,VALID,0,VALID,19.2392,VALID,56,VALID,0,
2012-11-29, 03:42:04,VALID,915.372,VALID,0,VALID,97.595,VALID,0,VALID,19.2168,VALID,110,VALID,0,
2012-11-29, 03:43:04,VALID,915.378,VALID,0,VALID,97.6026,VALID,0.107441,VALID,19.2182,VALID,110,VALID,0,
2012-11-29, 03:44:04,VALID,915.38,VALID,0,VALID,97.5873,VALID,0,VALID,19.2168,VALID,110,VALID,0,
2012-11-29, 03:45:04,VALID,915.357,VALID,0,VALID,97.6026,VALID,0,VALID,19.1958,VALID,110,VALID,0,
2012-11-29, 03:46:04,VALID,915.345,VALID,0,VALID,97.5797,VALID,0,VALID,19.1973,VALID,110,VALID,0,
2012-11-29, 03:47:04,VALID,915.319,VALID,0,VALID,97.6102,VALID,0,VALID,19.2392,VALID,110,VALID,0,
2012-11-29, 03:48:04,VALID,915.32,VALID,0,VALID,97.6026,VALID,0,VALID,19.1973,VALID,110,VALID,0,
2012-11-29, 03:49:04,VALID,915.296,VALID,0,VALID,97.5873,VALID,0,VALID,19.1973,VALID,110,VALID,0,
2012-11-29, 03:50:04,VALID,915.29,VALID,0,VALID,97.595,VALID,0,VALID,19.1973,VALID,110,VALID,0,
2012-11-29, 03:51:04,VALID,915.288,VALID,0,VALID,97.595,VALID,0,VALID,19.1778,VALID,110,VALID,0,
2012-11-29, 03:52:04,VALID,915.302,VALID,0,VALID,97.6102,VALID,0,VALID,19.1359,VALID,109,VALID,0,
2012-11-29, 03:53:04,VALID,915.297,VALID,0,VALID,97.595,VALID,0,VALID,19.1987,VALID,110,VALID,0,
2012-11-29, 03:54:04,VALID,915.302,VALID,0,VALID,97.595,VALID,0,VALID,19.1973,VALID,110,VALID,0,
2012-11-29, 03:55:04,VALID,915.299,VALID,0,VALID,97.6255,VALID,0,VALID,19.1583,VALID,110,VALID,0,
2012-11-29, 03:56:04,VALID,915.305,VALID,0,VALID,97.6178,VALID,0,VALID,19.1583,VALID,110,VALID,0,
2012-11-29, 03:57:04,VALID,915.317,VALID,0,VALID,97.6026,VALID,0,VALID,19.1583,VALID,110,VALID,0,
2012-11-29, 03:58:04,VALID,915.322,VALID,0,VALID,97.6102,VALID,0,VALID,19.1583,VALID,110,VALID,0,
2012-11-29, 03:59:04,VALID,915.319,VALID,0,VALID,97.6102,VALID,0,VALID,19.1583,VALID,110,VALID,0,
2012-11-29, 04:00:04,VALID,915.357,VALID,0,VALID,97.6026,VALID,0,VALID,19.1388,VALID,110,VALID,0,
2012-11-29, 04:01:04,VALID,915.352,VALID,0,VALID,97.6026,VALID,0.107441,VALID,19.1388,VALID,110,VALID,0,
2012-11-29, 04:02:04,VALID,915.357,VALID,0,VALID,97.6026,VALID,0,VALID,19.1388,VALID,110,VALID,0,